Regional Weather Roundup
Issued by NWS Nashville, TN

Home | Current Version | Previous Version | Text Only | Print | Product List | Glossary On
Versions: 1 2 3 4 5 6 7 8 9 10 11 12 13 14 15 16 17 18 19 20 21 22 23 24 25 26 27 28 29 30 31 32 33 34 35 36 37 38 39 40 41 42 43 44 45 46 47 48 49 50
170
ASUS44 KOHX 240410
RWROHX
MIDDLE TENNESSEE HOURLY WEATHER ROUNDUP
NATIONAL WEATHER SERVICE NASHVILLE TN
1100 PM CDT MON OCT 23 2017

NOTE: "FAIR" INDICATES FEW OR NO CLOUDS BELOW 12,000 FEET WITH
NO SIGNIFICANT WEATHER AND/OR OBSTRUCTIONS TO VISIBILITY.

* THESE REPORTS ARE NOT UNDER NWS QUALITY CONTROL AND MAY NOT
  REPORT WEATHER SUCH AS PRECIPITATION AND FOG.


TNZ005>011-023>034-057-059-062>066-078-080-240500
...NORTHERN MIDDLE TENNESSEE...

CITY           SKY/WX    TMP DP  RH WIND       PRES   REMARKS
CLARKSVILLE    CLOUDY    55  46  71 S12       29.82F
CROSSVILLE     CLEAR     47  45  93 VRB7      29.96R
DICKSON          N/A     50  46  85 S10       29.86F
NASHVILLE      CLEAR     50  46  86 S7        29.89F
PORTLAND       CLEAR     50  48  93 S9        29.85F
SPARTA         CLEAR     46  46 100 SE3       29.93S
SPRINGFIELD    MOCLDY    52  48  87 S10       29.83F
WEST NASHVILLE PTCLDY    52  48  87 S5        29.85F
$$
TNZ056-058-060-061-075>077-079-093>097-240500
...SOUTHERN MIDDLE TENNESSEE...

CITY           SKY/WX    TMP DP  RH WIND       PRES   REMARKS
COLUMBIA       PTCLDY    52  46  82 S8        29.89F
FAYETTEVILLE   CLEAR     50  48  93 S6        29.94F
MURFREESBORO   CLEAR     51  47  86 S7        29.90F
PULASKI        PTCLDY    46  46 100 CALM      29.94F
SHELBYVILLE    CLEAR     48  46  93 S3        29.92F
TULLAHOMA      CLEAR     46  46 100 S5        29.95F
WINCHESTER     CLEAR     46  46 100 SE3         N/A
$$


...KEY TO REMARKS...
VSB - VISIBILITY IN MILES
WCI - WIND CHILL INDEX
HX  - HEAT INDEX





USA.gov is the U.S. government's official web portal to all federal, state and local government web resources and services.